Flag for Poland Weather past 2 weeks in Chorzów, Poland

Now
36 °F

Fog.


Feels Like: 36 °F
Forecast: 35 / 45 °F
Wind: 1 mph from North

Location: Katowice Airport

Current Time: Mar 6, 2015 at 9:27:11 PM

Latest Report: Mar 6, 2015 at 9:00 PM


Visibility: 2 mi

Pressure: 30.54 "Hg

Humidity: 70%

Dew point: 27 °F

Location of ChorzówLocation

Historic Weather in Chorzów — Graph

°F

Chorzów temperature yesterday

Maximum temperature yesterday: 39 °F (at 10:00 AM)
Minimum temperature yesterday: 30 °F (at 12:00 AM)
Average temperature yesterday: 35 °F

Past Weeks' High & Low Weather Summary

 TemperatureHumidityPressure
High52 °F (Feb 23, 3:00 PM)100% (Feb 22, 2:30 AM)30.54 "Hg (Feb 22, 2:30 AM)
Low25 °F (Mar 6, 5:00 AM)29% (Feb 21, 1:00 PM)29.50 "Hg (Mar 2, 11:30 AM)
Average38 °F79%29.95 "Hg
* Reported Feb 19 8:00 PM — Mar 6 8:30 PM, Chorzów, Weather by CustomWeather, © 2015

Note: Actual official high and low records may vary slightly from our data, if they occured in-between our weather recording intervals... More about our weather records

Advertising

Chorzów weather history for previous 24 hours

 ConditionsComfort  
Time TempWeatherWind HumidityBarometerVisibility
8:30 PM
Fri, Mar 6
34 °FFog.3 mph75%30.51 "Hg2 mi
8:00 PM36 °FFog.3 mph70%30.51 "Hg3 mi
7:30 PM36 °FClear.5 mph65%30.51 "Hg4 mi
7:00 PM37 °FPassing clouds.3 mph60%30.51 "HgN/A
6:30 PM37 °FClear.3 mph60%30.51 "Hg10 mi
6:00 PM37 °FPassing clouds.6 mph60%30.51 "HgN/A
5:30 PM39 °FSunny.5 mph56%30.51 "Hg10 mi
5:00 PM39 °FScattered clouds.5 mph56%30.51 "HgN/A
4:30 PM39 °FScattered clouds.6 mph56%30.51 "HgN/A
4:00 PM39 °FScattered clouds.6 mph56%30.51 "HgN/A
3:30 PM39 °FScattered clouds.7 mph56%30.51 "HgN/A
3:00 PM39 °FScattered clouds.8 mph61%30.51 "HgN/A
2:30 PM39 °FScattered clouds.7 mph61%30.51 "HgN/A
2:00 PM39 °FScattered clouds.7 mph52%30.51 "HgN/A
1:30 PM41 °FScattered clouds.2 mph57%30.51 "HgN/A
1:00 PM39 °FScattered clouds.2 mph61%30.54 "HgN/A
12:30 PM37 °FScattered clouds.3 mph70%30.54 "HgN/A
12:00 PM37 °FScattered clouds.2 mph70%30.54 "HgN/A
11:30 AM36 °FScattered clouds.1 mph81%30.54 "HgN/A
11:00 AM32 °FScattered clouds.1 mph87%30.54 "Hg5 mi
10:30 AM32 °FPartly sunny.2 mph87%30.54 "Hg4 mi
10:00 AM30 °FPartly sunny.5 mph93%30.54 "Hg4 mi
9:30 AM30 °FIce fog.1 mph93%30.54 "Hg3 mi
9:00 AM30 °FIce fog.5 mph93%30.54 "Hg3 mi
8:30 AM30 °FIce fog.5 mph93%30.51 "Hg3 mi
8:00 AM30 °FIce fog.7 mph93%30.51 "Hg3 mi
7:30 AM30 °FIce fog.5 mph93%30.51 "Hg3 mi
7:00 AM28 °FIce fog.5 mph100%30.51 "Hg3 mi
6:30 AM28 °FIce fog.5 mph100%30.51 "Hg2 mi
6:00 AM28 °FIce fog.3 mph93%30.48 "Hg3 mi
5:30 AM28 °FIce fog.3 mph93%30.48 "Hg2 mi
5:00 AM25 °FIce fog.2 mph100%30.48 "Hg2 mi
4:30 AM27 °FChilly.3 mph100%30.48 "Hg1 mi
4:00 AM28 °FIce fog.5 mph93%30.45 "Hg2 mi
3:30 AM28 °FIce fog.5 mph93%30.45 "Hg2 mi
3:00 AM28 °FIce fog.3 mph93%30.45 "Hg3 mi
2:30 AM30 °FIce fog.5 mph93%30.45 "Hg3 mi
2:00 AM30 °FClear.2 mph93%30.45 "Hg4 mi
1:30 AM30 °FIce fog.3 mph93%30.45 "Hg3 mi
1:00 AM30 °FIce fog.3 mph93%30.45 "Hg3 mi
12:30 AM30 °FIce fog.5 mph93%30.45 "Hg3 mi
12:00 AM30 °FIce fog.3 mph93%30.45 "Hg3 mi
11:30 PM
Thu, Mar 5
30 °FIce fog.3 mph93%30.45 "Hg2 mi
11:00 PM30 °FIce fog.1 mph93%30.45 "Hg2 mi
10:30 PM30 °FIce fog.3 mph93%30.45 "Hg2 mi
9:30 PM32 °FPassing clouds.2 mph87%30.45 "Hg4 mi
9:00 PM32 °FPassing clouds.3 mph87%30.42 "Hg4 mi
Weather by CustomWeather, © 2015

See weather overviewHow to use our weather pages